This is the latest recevied weather packets stored in our database for station/object K6CED. If no packets are shown the sender has not sent any weather packets the latest 10 day(s).
| Time | Temp. | Humidity | Pressure | Rain* | Wind** | Luminosity | Snow |
|---|---|---|---|---|---|---|---|
| 1778114958 | 22.22° C | 57% | 1017.5 hPa | 0 mm | - | 177 W/m² | - |
| 1778114655 | 22.22° C | 56% | 1017.4 hPa | 0 mm | - | 193 W/m² | - |
| 1778114353 | 23.33° C | 54% | 1017.6 hPa | 0 mm | - | 210 W/m² | - |
| 1778114048 | 22.78° C | 55% | 1017.5 hPa | 0 mm | - | 222 W/m² | - |
| 1778113743 | 22.78° C | 55% | 1017.5 hPa | 0 mm | - | 239 W/m² | - |
| 1778113439 | 22.78° C | 55% | 1017.4 hPa | 0 mm | - | 256 W/m² | - |
| 1778113136 | 22.78° C | 55% | 1017.5 hPa | 0 mm | - | 272 W/m² | - |
| 1778112833 | 23.33° C | 54% | 1017.4 hPa | 0 mm | - | 298 W/m² | - |
| 1778112530 | 23.33° C | 54% | 1017.3 hPa | 0 mm | - | 317 W/m² | - |
| 1778112225 | 23.33° C | 54% | 1017.2 hPa | 0 mm | - | 335 W/m² | - |
| 1778111922 | 23.33° C | 54% | 1017.4 hPa | 0 mm | - | 353 W/m² | - |
| 1778111619 | 23.33° C | 54% | 1017.1 hPa | 0 mm | - | 370 W/m² | - |
| 1778111315 | 23.33° C | 54% | 1017.4 hPa | 0 mm | - | 389 W/m² | - |
| 1778111012 | 23.33° C | 55% | 1017.2 hPa | 0 mm | - | 406 W/m² | - |
| 1778110710 | 23.89° C | 53% | 1017.1 hPa | 0 mm | - | 424 W/m² | - |
| 1778110400 | 23.89° C | 53% | 1017.2 hPa | 0 mm | - | 443 W/m² | - |
| 1778110097 | 23.89° C | 53% | 1017.1 hPa | 0 mm | - | 460 W/m² | - |
| 1778109793 | 23.89° C | 53% | 1017.2 hPa | 0 mm | - | 477 W/m² | - |
| 1778109490 | 23.89° C | 52% | 1017.2 hPa | 0 mm | - | 492 W/m² | - |
| 1778109188 | 24.44° C | 51% | 1017.1 hPa | 0 mm | - | 510 W/m² | - |
| 1778108885 | 24.44° C | 51% | 1017.2 hPa | 0 mm | - | 521 W/m² | - |
| 1778108581 | 23.89° C | 51% | 1017.2 hPa | 0 mm | - | 544 W/m² | - |
| 1778108277 | 24.44° C | 51% | 1017.2 hPa | 0 mm | - | 557 W/m² | - |
| 1778107974 | 25° C | 49% | 1017.3 hPa | 0 mm | - | 577 W/m² | - |
| 1778107665 | 25° C | 49% | 1017.2 hPa | 0 mm | - | 593 W/m² | - |
* Rain latest hour (hover to see other rain measurements)
** Current wind speed in m/s (hover to see current wind gust speed)